This demonstration page uses our WeatherBlox Daily Observations layout. Learn more.

Left ArrowRight Arrow

39.92423, -83.80882

Hourly Observations for March 1, 2018

Temp ( °F °C ) Dew Point ( °F °C ) Humidity (%) Winds ( mph kmh ) Pressure ( in mb ) Visibility ( mi km ) Precip ( " mm )
12:56 am 00:56 Mostly Clear with Light Rain 49 9.4 49 9.4 100 100 SE 7 11 29.83 1010 5 8 0.08 2.03
1:56 am 01:56 Clear 49 9.4 49 9.4 100 100 SE 10 17 29.78 1009 10 16 0.01 0.25
2:56 am 02:56 Mostly Clear with Mist and Fog 49 9.4 49 9.4 100 100 SE 9 15 29.79 1009 6 10 N/A
3:56 am 03:56 Mostly Clear with Mist and Fog 49 9.4 49 9.4 100 100 ESE 8 13 29.73 1007 5 8 N/A
4:56 am 04:56 Mostly Clear with Mist and Fog 49 9.4 49 9.4 100 100 SE 8 13 29.74 1007 3 5 N/A
5:56 am 05:56 Mostly Clear with Light Rain 49 9.4 49 9.4 100 100 SE 9 15 29.71 1006 7 11 0.03 0.76
6:56 am 06:56 Mostly Clear with Light Rain 49 9.4 49 9.4 100 100 SE 7 11 29.70 1006 7 11 0.04 1.02
7:56 am 07:56 Partly Cloudy with Light Rain 50 10 49 9.4 96 96 SE 9 15 29.69 1006 6 10 0.09 2.29
8:56 am 08:56 Partly Cloudy with Rain 50 10 50 10 100 100 SE 9 15 29.67 1005 4 6 0.09 2.29
9:27 am 09:27 Partly Cloudy with Light Rain 50 10 50 10 100 100 SE 8 13 29.62 1003 2 3 0.09 2.29
9:45 am 09:45 Partly Cloudy with Light Rain 52 11 50 10 94 94 SSE 9 15 29.62 1003 6 10 0.09 2.29
9:56 am 09:56 Partly Cloudy with Mist and Fog 51 10.6 50 10 96 96 SSE 10 17 29.63 1003 3 5 0.09 2.29
10:56 am 10:56 Partly Cloudy with Rain 53 11.7 52 11.1 96 96 S 6 9 29.61 1003 7 11 0.04 1.02
11:32 am 11:32 Partly Cloudy with Light Rain 54 12 54 12 100 100 SSW 12 19 29.56 1001 2 3 0.07 1.78
11:46 am 11:46 Partly Cloudy with Light Rain 55 13 54 12 94 94 SW 13 20 29.53 1000 5 8 0.07 1.78
11:56 am 11:56 Partly Cloudy with Light Rain 55 12.8 54 12.2 96 96 SW 14 22 29.57 1001 6 10 0.07 1.78
12:21 pm 12:21 Partly Cloudy with Light Rain 55 13 55 13 100 100 SW 15 24 29.53 1000 2 3 N/A
12:31 pm 12:31 Partly Cloudy with Light Rain 55 13 55 13 100 100 SW 15 24 29.53 1000 6 10 0.01 0.25
12:56 pm 12:56 Partly Cloudy with Light Rain 56 13.3 55 12.8 97 97 SW 17 28 29.53 1000 10 16 0.05 1.27
1:56 pm 13:56 Partly Cloudy with Rain 56 13.3 54 12.2 93 93 SW 20 31 29.48 998 8 13 0.06 1.52
2:43 pm 14:43 Partly Cloudy with Light Rain 50 10 48 9 94 94 WNW 30 48 29.53 1000 9 14 0.16 4.06
2:56 pm 14:56 Partly Cloudy with Light Rain 44 6.7 42 5.6 93 93 WNW 28 44 29.53 1000 10 16 0.16 4.06
3:56 pm 15:56 Sunny 39 3.9 37 2.8 93 93 NW 25 41 29.62 1003 10 16 N/A
4:56 pm 16:56 Partly Cloudy with Light Rain 37 2.8 35 1.7 93 93 NW 20 31 29.70 1006 6 10 N/A
5:56 pm 17:56 Sunny 37 2.8 34 1.1 89 89 NW 20 31 29.79 1009 10 16 N/A
6:56 pm 18:56 Clear 52 11.1 49 9.4 89 89 S 7 11 29.88 1012 10 16 N/A
7:56 pm 19:56 Mostly Clear with Light Rain 37 2.8 35 1.7 93 93 NW 23 37 29.92 1013 8 13 N/A
8:56 pm 20:56 Mostly Clear with Light Rain 36 2.2 33 0.6 89 89 NW 20 31 29.98 1015 9 14 0.01 0.25
9:56 pm 21:56 Mostly Clear with Light Rain 35 1.7 32 undefined 89 89 NNW 20 31 30.02 1017 10 16 N/A
10:56 pm 22:56 Clear 35 1.7 31 -0.6 85 85 NNW 18 30 30.06 1018 10 16 N/A
11:56 pm 23:56 Clear 35 1.7 31 -0.6 85 85 NW 14 22 30.09 1019 10 16 N/A

Powered by AerisWeather